When you browse on this site, cookies collect data to enhance your experience and personalize the content and advertising you see.
Visit our Privacy Policy to learn more. By continuing to use the site, you agree to this use of cookies and data.

Previsão horária em Abdulino

Hoje, 28 Setembro, Segunda-feira

Tempo Temperatura Precipitação Vento Pressão Humidade
00:00 +12°C° 0 mm 1 m/s 760 mmHg 72%
01:00 +12°C° 0 mm 1 m/s 760 mmHg 74%
02:00 +11°C° 0 mm 1 m/s 760 mmHg 74%
03:00 +11°C° 0 mm 1 m/s 760 mmHg 73%
04:00 +11°C° 0 mm 1 m/s 760 mmHg 73%
05:00 +11°C° 0 mm 1 m/s 760 mmHg 74%
06:00 +11°C° 0 mm 1 m/s 760 mmHg 75%
07:00 +11°C° 0 mm 1 m/s 760 mmHg 76%
08:00 +12°C° 0 mm 1 m/s 760 mmHg 71%
09:00 +14°C° 0 mm 2 m/s 760 mmHg 65%
10:00 +15°C° 0 mm 2 m/s 761 mmHg 61%
11:00 +16°C° 0 mm 2 m/s 761 mmHg 56%
12:00 +17°C° 0 mm 2 m/s 761 mmHg 52%
13:00 +18°C° 0 mm 2 m/s 761 mmHg 47%
14:00 +18°C° 0 mm 3 m/s 760 mmHg 47%
15:00 +18°C° 0 mm 3 m/s 760 mmHg 47%
16:00 +18°C° 0 mm 3 m/s 760 mmHg 48%
17:00 +17°C° 0 mm 3 m/s 760 mmHg 54%
18:00 +15°C° 0 mm 2 m/s 760 mmHg 60%
19:00 +14°C° 0 mm 2 m/s 760 mmHg 66%
20:00 +13°C° 0 mm 2 m/s 760 mmHg 68%
21:00 +12°C° 0 mm 2 m/s 760 mmHg 71%
22:00 +12°C° 0 mm 2 m/s 760 mmHg 73%
23:00 +10°C° 0 mm 2 m/s 760 mmHg 75%

Amanhã, 29 Setembro, Terça-feira

Tempo Temperatura Precipitação Vento Pressão Humidade
00:00 +11°C° 0 mm 1 m/s 760 mmHg 77%
01:00 +11°C° 0 mm 1 m/s 760 mmHg 79%
02:00 +10°C° 0 mm 1 m/s 760 mmHg 81%
03:00 +10°C° 0 mm 1 m/s 760 mmHg 82%
04:00 +10°C° 0 mm 1 m/s 760 mmHg 83%
05:00 +10°C° 0 mm 1 m/s 760 mmHg 83%
06:00 +9°C° 0 mm 2 m/s 760 mmHg 84%
07:00 +8°C° 0 mm 2 m/s 760 mmHg 84%
08:00 +10°C° 0 mm 2 m/s 760 mmHg 78%
09:00 +13°C° 0 mm 2 m/s 760 mmHg 71%
10:00 +15°C° 0 mm 2 m/s 761 mmHg 64%
11:00 +16°C° 0 mm 2 m/s 760 mmHg 60%
12:00 +17°C° 0 mm 2 m/s 760 mmHg 56%
13:00 +18°C° 0 mm 2 m/s 760 mmHg 51%
14:00 +18°C° 0 mm 2 m/s 760 mmHg 51%
15:00 +18°C° 0 mm 2 m/s 760 mmHg 51%
16:00 +18°C° 0 mm 2 m/s 759 mmHg 51%
17:00 +17°C° 0 mm 2 m/s 759 mmHg 57%
18:00 +15°C° 0 mm 2 m/s 759 mmHg 64%
19:00 +14°C° 0 mm 2 m/s 759 mmHg 70%
20:00 +13°C° 0 mm 2 m/s 759 mmHg 72%
21:00 +13°C° 0 mm 2 m/s 759 mmHg 74%
22:00 +13°C° 0 mm 2 m/s 759 mmHg 76%
23:00 +12°C° 0 mm 2 m/s 759 mmHg 77%

Depois de amanhã, 30 Setembro, Quarta-feira

Tempo Temperatura Precipitação Vento Pressão Humidade
00:00 +12°C° 0 mm 2 m/s 759 mmHg 77%
01:00 +12°C° 0 mm 2 m/s 759 mmHg 78%
02:00 +10°C° 0 mm 2 m/s 759 mmHg 80%
03:00 +10°C° 0 mm 2 m/s 759 mmHg 81%
04:00 +10°C° 0 mm 2 m/s 759 mmHg 83%
05:00 +10°C° 0 mm 2 m/s 759 mmHg 83%
06:00 +9°C° 0 mm 2 m/s 759 mmHg 82%
07:00 +9°C° 0 mm 2 m/s 759 mmHg 82%
08:00 +12°C° 0 mm 2 m/s 759 mmHg 75%
09:00 +14°C° 0 mm 2 m/s 759 mmHg 68%
10:00 +15°C° 0 mm 2 m/s 759 mmHg 61%
11:00 +16°C° 0 mm 2 m/s 759 mmHg 56%
12:00 +17°C° 0 mm 2 m/s 759 mmHg 51%
13:00 +18°C° 0 mm 2 m/s 759 mmHg 47%
14:00 +19°C° 0 mm 2 m/s 759 mmHg 47%
15:00 +19°C° 0 mm 2 m/s 758 mmHg 46%
16:00 +19°C° 0 mm 2 m/s 758 mmHg 46%
17:00 +17°C° 0 mm 2 m/s 758 mmHg 52%
18:00 +16°C° 0 mm 2 m/s 758 mmHg 58%
19:00 +15°C° 0 mm 2 m/s 758 mmHg 64%
20:00 +14°C° 0 mm 2 m/s 758 mmHg 67%
21:00 +14°C° 0 mm 2 m/s 758 mmHg 70%
22:00 +13°C° 0 mm 2 m/s 758 mmHg 73%
23:00 +13°C° 0 mm 2 m/s 758 mmHg 77%

1 Outubro, Quinta-feira

Tempo Temperatura Precipitação Vento Pressão Humidade
00:00 +12°C° 0 mm 2 m/s 758 mmHg 80%
01:00 +12°C° 0 mm 1 m/s 758 mmHg 84%
02:00 +12°C° 0 mm 1 m/s 758 mmHg 85%
03:00 +11°C° 0 mm 1 m/s 758 mmHg 86%
04:00 +11°C° 0 mm 1 m/s 758 mmHg 87%
05:00 +11°C° 0 mm 1 m/s 758 mmHg 87%
06:00 +11°C° 0 mm 1 m/s 758 mmHg 88%
07:00 +9°C° 0 mm 2 m/s 758 mmHg 88%
08:00 +12°C° 0 mm 2 m/s 758 mmHg 82%
09:00 +14°C° 0 mm 2 m/s 758 mmHg 75%
10:00 +15°C° 0 mm 2 m/s 758 mmHg 68%
11:00 +16°C° 0 mm 2 m/s 758 mmHg 65%
12:00 +18°C° 0 mm 2 m/s 758 mmHg 61%
13:00 +19°C° 0 mm 2 m/s 758 mmHg 57%
14:00 +19°C° 0 mm 2 m/s 757 mmHg 56%
15:00 +19°C° 0 mm 2 m/s 757 mmHg 55%
16:00 +20°C° 0 mm 1 m/s 757 mmHg 54%
17:00 +18°C° 0 mm 2 m/s 757 mmHg 60%
18:00 +16°C° 0 mm 2 m/s 757 mmHg 65%
19:00 +15°C° 0 mm 2 m/s 757 mmHg 71%
20:00 +14°C° 0 mm 2 m/s 757 mmHg 72%
21:00 +14°C° 0 mm 2 m/s 757 mmHg 73%
22:00 +13°C° 0 mm 2 m/s 757 mmHg 74%
23:00 +13°C° 0 mm 2 m/s 757 mmHg 76%

2 Outubro, Sexta-feira

Tempo Temperatura Precipitação Vento Pressão Humidade
00:00 +12°C° 0 mm 1 m/s 757 mmHg 78%
01:00 +12°C° 0 mm 1 m/s 757 mmHg 80%
02:00 +11°C° 0 mm 1 m/s 757 mmHg 82%
03:00 +11°C° 0 mm 1 m/s 757 mmHg 84%
04:00 +10°C° 0 mm 0 m/s 757 mmHg 85%
05:00 +10°C° 0 mm 0 m/s 757 mmHg 85%
06:00 +11°C° 0 mm 1 m/s 757 mmHg 86%
07:00 +10°C° 0 mm 1 m/s 757 mmHg 86%
08:00 +12°C° 0 mm 1 m/s 757 mmHg 79%
09:00 +14°C° 0 mm 1 m/s 757 mmHg 72%
10:00 +15°C° 0 mm 1 m/s 757 mmHg 66%
11:00 +18°C° 0 mm 1 m/s 757 mmHg 61%
12:00 +19°C° 0 mm 1 m/s 757 mmHg 56%
13:00 +20°C° 0 mm 1 m/s 757 mmHg 52%
14:00 +20°C° 0 mm 1 m/s 757 mmHg 50%
15:00 +20°C° 0 mm 1 m/s 757 mmHg 49%
16:00 +20°C° 0 mm 1 m/s 757 mmHg 48%
17:00 +19°C° 0 mm 1 m/s 756 mmHg 54%
18:00 +16°C° 0 mm 1 m/s 756 mmHg 59%
19:00 +15°C° 0 mm 1 m/s 756 mmHg 65%
20:00 +14°C° 0 mm 1 m/s 756 mmHg 67%
21:00 +14°C° 0 mm 1 m/s 756 mmHg 70%
22:00 +13°C° 0 mm 1 m/s 756 mmHg 72%
23:00 +13°C° 0 mm 1 m/s 756 mmHg 74%

3 Outubro, Sábado

Tempo Temperatura Precipitação Vento Pressão Humidade
00:00 +12°C° 0 mm 1 m/s 756 mmHg 75%
01:00 +12°C° 0 mm 1 m/s 756 mmHg 77%
02:00 +11°C° 0 mm 0 m/s 756 mmHg 78%
03:00 +10°C° 0 mm 0 m/s 756 mmHg 79%
04:00 +10°C° 0 mm 0 m/s 756 mmHg 80%
05:00 +10°C° 0 mm 0 m/s 756 mmHg 80%
06:00 +10°C° 0 mm 0 m/s 756 mmHg 80%
07:00 +10°C° 0 mm 0 m/s 756 mmHg 80%
08:00 +12°C° 0 mm 1 m/s 756 mmHg 74%
09:00 +14°C° 0 mm 1 m/s 756 mmHg 68%
10:00 +15°C° 0 mm 1 m/s 756 mmHg 62%
11:00 +16°C° 0 mm 1 m/s 756 mmHg 58%
12:00 +18°C° 0 mm 1 m/s 756 mmHg 54%
13:00 +19°C° 0 mm 1 m/s 756 mmHg 50%
14:00 +18°C° 0 mm 2 m/s 756 mmHg 51%
15:00 +18°C° 0 mm 2 m/s 756 mmHg 52%
16:00 +18°C° 0 mm 2 m/s 756 mmHg 52%
17:00 +16°C° 0 mm 2 m/s 756 mmHg 58%
18:00 +15°C° 0 mm 2 m/s 756 mmHg 65%
19:00 +14°C° 0 mm 2 m/s 756 mmHg 71%
20:00 +13°C° 0 mm 2 m/s 756 mmHg 74%
21:00 +12°C° 0 mm 2 m/s 756 mmHg 78%
22:00 +12°C° 0 mm 2 m/s 756 mmHg 81%
23:00 +10°C° 0 mm 2 m/s 756 mmHg 82%
Mostrar mais